sat.trackr.live / text

‹ back to catalog

ONEWEB-0229

NORAD 48779 · 2021-045N

PAYLOAD ACTIVE UNKNOWN

§ Identity

Operator
Country
UK
Launch date
2021-05-28
Launch site
VOSTO
Launch vehicle
Mass (kg)
RCS (m²)

Purposes: comms

External: N2YO · Heavens-Above · Gunter

§ Orbital elements

Epoch: 2026-09-19T21:43:32.282400Z

Period
109.46 min
Inclination
87.8989°
Eccentricity
0.0002102
Mean motion
13.15547335 rev/d
Perigee alt
1,200.2 km
Apogee alt
1,203.4 km
Semi-major
7,579.9 km
B*
-1.4422e-4
RAAN
240.3091°
Arg perigee
81.6648°
Mean anomaly
278.4720°
Rev number
25,686

§ Raw data

ONEWEB-02291 48779U 21045N   26262.90523475 -.00000041  00000+0 -14422-3 0  99922 48779  87.8989 240.3091 0002102  81.6648 278.4720 13.15547335256867

JSON: /api/v1/satellites/48779 · /tle

For live sub-satellite position, see the globe view (requires WebGL).

§ Visibility from observer

Set your observer location to see the next 7 days of passes ≥ 10°. The values pass through the URL so the page stays shareable.

No JS? Fill the form by hand. The geolocation button needs JavaScript.